N7265Y KLAX-KSNA

Flight info

Callsign N7265Y
Flight time N/A
Altitude VFR
Route
Aircraft C172/L-VGD/C

Departure

Time 2026-04-26 22:25
Airport Los Angeles International Airport (KLAX)

Arrival

Time N/A
Airport John Wayne Orange County International Airport (KSNA)
Time Latitude Longitude Altitude Speed Heading
2026-04-26 22:18 33.93301 -118.40298 115 ft 0 kts 173°
2026-04-26 22:19 33.93300 -118.40298 115 ft 0 kts 166°
2026-04-26 22:19 33.93307 -118.40282 115 ft 9 kts
2026-04-26 22:19 33.93351 -118.40284 115 ft 0 kts 357°
2026-04-26 22:21 33.93399 -118.40280 115 ft 16 kts 21°
2026-04-26 22:22 33.93421 -118.40166 115 ft 21 kts 81°
2026-04-26 22:22 33.93445 -118.39919 112 ft 32 kts 85°
2026-04-26 22:22 33.93471 -118.39670 107 ft 29 kts 84°
2026-04-26 22:22 33.93496 -118.39423 104 ft 30 kts 84°
2026-04-26 22:23 33.93522 -118.39169 103 ft 30 kts 82°
2026-04-26 22:23 33.93555 -118.38854 99 ft 38 kts 81°
2026-04-26 22:23 33.93581 -118.38583 99 ft 28 kts 82°
2026-04-26 22:23 33.93608 -118.38319 96 ft 30 kts 91°
2026-04-26 22:24 33.93687 -118.38284 96 ft 21 kts 336°
2026-04-26 22:24 33.93721 -118.38442 98 ft 32 kts 262°
2026-04-26 22:24 33.93689 -118.38879 135 ft 63 kts 262°
2026-04-26 22:24 33.93628 -118.39414 280 ft 65 kts 256°
2026-04-26 22:25 33.93565 -118.39991 362 ft 71 kts 259°
2026-04-26 22:25 33.93515 -118.40591 474 ft 71 kts 260°
2026-04-26 22:25 33.93473 -118.41190 586 ft 71 kts 262°
2026-04-26 22:25 33.93415 -118.41780 737 ft 70 kts 256°
2026-04-26 22:26 33.93309 -118.42354 874 ft 67 kts 246°
2026-04-26 22:26 33.93086 -118.42831 799 ft 66 kts 241°
2026-04-26 22:26 33.92813 -118.43220 661 ft 65 kts 209°
2026-04-26 22:26 33.92333 -118.43253 529 ft 66 kts 180°
2026-04-26 22:27 33.91881 -118.43047 397 ft 75 kts 170°
2026-04-26 22:27 33.91392 -118.42785 361 ft 79 kts 167°
2026-04-26 22:27 33.90921 -118.42448 415 ft 78 kts 160°
2026-04-26 22:27 33.90422 -118.42207 458 ft 78 kts 172°
2026-04-26 22:28 33.89897 -118.41990 485 ft 82 kts 179°
2026-04-26 22:28 33.89334 -118.41695 484 ft 88 kts 167°
2026-04-26 22:28 33.88821 -118.41412 604 ft 77 kts 168°
2026-04-26 22:28 33.88339 -118.41147 698 ft 76 kts 164°
2026-04-26 22:29 33.87814 -118.40930 691 ft 83 kts 167°
2026-04-26 22:29 33.87278 -118.40675 757 ft 81 kts 166°
2026-04-26 22:29 33.87062 -118.39925 633 ft 107 kts 107°
2026-04-26 22:29 33.86637 -118.39261 638 ft 98 kts 135°
2026-04-26 22:30 33.86190 -118.38593 728 ft 106 kts 139°
2026-04-26 22:30 33.85716 -118.37890 819 ft 109 kts 143°
2026-04-26 22:30 33.85155 -118.37206 875 ft 114 kts 143°
2026-04-26 22:30 33.84548 -118.36586 932 ft 116 kts 148°
2026-04-26 22:31 33.83951 -118.35902 994 ft 117 kts 143°
2026-04-26 22:31 33.83354 -118.35219 1060 ft 119 kts 146°
2026-04-26 22:31 33.82778 -118.34666 1141 ft 97 kts 148°
2026-04-26 22:31 33.82283 -118.34071 1081 ft 100 kts 140°
2026-04-26 22:32 33.81792 -118.33463 978 ft 106 kts 145°
2026-04-26 22:32 33.81286 -118.32787 786 ft 101 kts 137°
2026-04-26 22:32 33.80908 -118.32154 697 ft 84 kts 141°
2026-04-26 22:32 33.80470 -118.31873 615 ft 64 kts 192°
2026-04-26 22:33 33.80059 -118.31977 524 ft 59 kts 211°
2026-04-26 22:33 33.79666 -118.32622 395 ft 55 kts 277°
2026-04-26 22:33 33.79857 -118.33010 271 ft 52 kts 284°
2026-04-26 22:34 33.80059 -118.33420 145 ft 61 kts 294°
2026-04-26 22:34 33.80281 -118.33785 96 ft 47 kts 306°
2026-04-26 22:34 33.80446 -118.34043 95 ft 31 kts 299°
2026-04-26 22:34 33.80539 -118.34212 93 ft 21 kts 297°
2026-04-26 22:35 33.80581 -118.34364 92 ft 18 kts 288°
2026-04-26 22:35 33.80607 -118.34457 91 ft 11 kts 274°
2026-04-26 22:35 33.80550 -118.34547 93 ft 16 kts 216°
2026-04-26 22:35 33.80489 -118.34610 95 ft 3 kts 298°
2026-04-26 22:36 33.80490 -118.34611 95 ft 0 kts 350°